Location: Ehingen
(48.2869°N, 9.7112°E)
Time: 19:53:03
(UTC+02:00)

ISS - Pass Details

Date: 28 March 2017
Orbit: 399 x 409 km, 51.6° (Epoch: 29 March)

Event Time Altitude Azimuth Distance (km) Brightness Sun altitude
Rises 20:56:17 0° 214° (SW) 2,301 0.2 -12.2°
Reaches altitude 10° 20:58:32 10° 202° (SSW) 1,448 -1.0 -12.6°
Maximum altitude 21:01:18 26° 143° (SE) 827 -2.7 -13.0°
Enters shadow 21:01:55 25° 123° (ESE) 868 -2.8 -13.1°
